Location: Cahas Mountain Overlook
(37.0833°N, 80.1000°W)
Time: 20:07:34
(UTC-04:00)

Explorer 7 - Pass Details

Date: 15 February 2026
Orbit: 430 x 541 km, 50.2° (Epoch: 13 March)

Event Time Altitude Azimuth Distance (km) Brightness Sun altitude
Rises 20:43:24 0° 315° (NW) 2,561 11.0 -33.0°
Enters shadow 20:45:18 - 327° (NNW) 1,918 10.1 -33.4°
Reaches altitude 10° 20:46:02 10° 334° (NNW) 1,703 - -33.5°
Maximum altitude 20:48:53 19° 21° (NNE) 1,250 - -34.1°
Drops below altitude 10° 20:51:48 10° 69° (ENE) 1,749 - -34.7°
Sets 20:54:32 0° 87° (E) 2,656 - -35.2°
